Location: Azenweiler
(47.8027°N, 9.4096°E)
Time: 18:18:33
(UTC+00:00)

Cosmos 2151 - Visible Passes

Search period start: 07 March 2026 00:00
Search period end: 17 March 2026 00:00
Orbit: 557 x 576 km, 82.5° (Epoch: 7 March)

Date Brightness Start Highest point End Pass type
(mag) Time Alt. Az. Time Alt. Az. Time Alt. Az.
7 Mar 6.2 04:05:57 10° NE 04:07:52 13° ENE 04:09:47 10° E visible
7 Mar 3.0 18:07:14 10° SSE 18:11:09 48° E 18:15:05 10° NNE visible
7 Mar 5.8 19:45:32 10° WSW 19:48:13 17° WNW 19:50:55 10° NNW visible
8 Mar 6.1 04:06:21 10° NNE 04:08:51 16° ENE 04:11:21 10° ESE visible
8 Mar 2.8 18:07:59 10° S 18:11:59 60° E 18:16:01 10° NNE visible
8 Mar 6.1 19:47:00 10° W 19:49:11 14° WNW 19:51:23 10° NNW visible
9 Mar 5.9 04:06:53 10° NNE 04:09:49 19° ENE 04:12:44 10° ESE visible
9 Mar 2.8 18:08:47 10° S 18:12:50 75° E 18:16:55 10° NNE visible
9 Mar 6.4 19:48:42 10° W 19:50:10 12° WNW 19:51:38 10° NW visible
10 Mar 5.6 04:07:30 10° NNE 04:10:45 22° ENE 04:14:00 10° ESE visible
10 Mar 2.9 18:09:36 10° S 18:13:41 87° WNW 18:17:46 10° N visible
11 Mar 5.2 04:08:10 10° NNE 04:11:41 27° ENE 04:15:11 10° SE visible
11 Mar 3.2 18:10:29 10° SSW 18:14:32 71° W 18:18:37 10° N visible
12 Mar 4.8 04:08:52 10° N 04:12:35 32° ENE 04:16:19 10° SE visible
12 Mar 3.7 18:11:24 10° SSW 18:15:24 56° WNW 18:19:26 10° N visible
13 Mar 4.4 04:09:36 10° N 04:13:29 39° ENE 04:17:22 10° SE visible
13 Mar 4.2 18:12:22 10° SSW 18:16:16 45° WNW 18:20:12 10° N visible
14 Mar 3.9 04:10:22 10° N 04:14:22 48° ENE 04:18:21 10° SSE visible
14 Mar 4.6 18:13:22 10° SW 18:17:09 37° WNW 18:20:57 10° N visible
15 Mar 3.5 04:11:08 10° N 04:15:14 60° ENE 04:19:18 10° SSE visible
15 Mar 5.1 18:14:25 10° SW 18:18:01 30° WNW 18:21:40 10° N visible
16 Mar 3.1 04:11:56 10° N 04:16:05 75° E 04:20:12 10° SSE visible
16 Mar 5.5 18:15:32 10° SW 18:18:55 25° WNW 18:22:21 10° NNW visible
